DR0T Weather Reports


time (UTC)temp
F
wind
direction
speed
knots
gust
knots
rain 1hr
in
rain 24hr
in
rain mn
in
humidity
%
barometer
mb
20260506214235 49 239 1.7 2.6 0.10 0.37 0.36 99 1009.4
20260506213735 49 242 1.7 2.6 0.10 0.36 0.35 99 1009.5
20260506213231 49 246 1.7 2.6 0.11 0.36 0.35 99 1009.4
20260506212729 49 242 1.7 1.7 0.11 0.35 0.34 99 1009.3
20260506212229 49 242 1.7 2.6 0.12 0.36 0.34 99 1009.2
20260506211730 49 244 2.6 2.6 0.13 0.35 0.33 99 1009.3
20260506211226 49 246 2.6 2.6 0.14 0.36 0.33 99 1009.3
20260506210725 49 250 2.6 2.6 0.15 0.37 0.33 99 1009.3
20260506210225 49 253 1.7 2.6 0.15 0.37 0.32 99 1009.2
20260506205722 49 248 2.6 5.2 0.15 0.36 0.30 99 1009.2
20260506205220 49 248 2.6 3.5 0.15 0.36 0.29 99 1009.2
20260506204732 49 249 1.7 2.6 0.13 0.34 0.27 99 1009.1
20260506204218 49 244 0.0 1.7 0.13 0.33 0.26 99 1009.1
20260506203722 49 0.0 0.0 0.13 0.32 0.25 99 1009.2
20260506203235 50 0.0 0.0 0.12 0.32 0.24 99 1009.1
20260506202733 50 311 0.0 0.9 0.13 0.36 0.23 99 1009.1
20260506202232 50 311 0.0 0.9 0.13 0.36 0.22 99 1009.0
20260506201731 50 311 0.0 0.9 0.12 0.34 0.20 99 1008.9
20260506201238 50 307 0.0 2.6 0.11 0.33 0.19 99 1009.0
20260506200729 50 234 0.0 0.9 0.11 0.32 0.18 99 1009.0
20260506200227 50 234 0.9 2.6 0.10 0.31 0.17 99 1009.0
20260506195726 50 234 2.6 2.6 0.09 0.29 0.15 99 1008.8
20260506195229 50 234 1.7 2.6 0.11 0.28 0.14 99 1008.8
20260506194724 50 234 0.9 1.7 0.14 0.28 0.14 99 1008.7
20260506194222 50 234 1.7 2.6 0.13 0.27 0.13 99 1008.7
20260506193721 50 234 1.7 2.6 0.12 0.26 0.12 99 1008.6
20260506193220 50 234 2.6 2.6 0.12 0.26 0.12 99 1008.7
20260506192718 50 233 2.6 2.6 0.10 0.24 0.10 99 1008.5
20260506192221 50 230 1.7 2.6 0.09 0.23 0.09 99 1008.5
20260506191737 50 236 1.7 2.6 0.08 0.22 0.08 98 1008.4
20260506191234 50 223 1.7 2.6 0.08 0.22 0.08 98 1008.3
20260506190732 50 223 1.7 2.6 0.07 0.21 0.07 98 1008.3
20260506190230 50 234 1.7 2.6 0.07 0.21 0.07 98 1008.3
20260506185729 51 233 1.7 2.6 0.06 0.20 0.06 97 1008.4
20260506185228 51 239 2.6 2.6 0.03 0.17 0.03 96 1008.4
20260506184733 51 238 2.6 2.6 0.00 0.14 0.00 95 1008.3
20260506184225 51 244 1.7 2.6 0.00 0.14 0.00 94 1008.2
20260506183724 51 251 2.6 2.6 0.00 0.14 0.00 94 1008.1
20260506183227 51 250 3.5 5.2 0.00 0.14 0.00 94 1008.1
20260506182725 52 245 3.5 5.2 0.00 0.14 0.00 93 1008.0
20260506182220 52 250 4.3 6.1 0.00 0.14 0.00 93 1007.9
20260506181719 52 256 3.5 5.2 0.00 0.14 0.00 91 1008.0
20260506181218 52 246 4.3 6.1 0.00 0.14 0.00 91 1007.9
20260506180720 52 245 4.3 7.8 0.00 0.14 0.00 91 1007.7
20260506180238 52 247 4.3 5.2 0.00 0.14 0.00 92 1007.9
20260506175733 52 240 5.2 7.0 0.00 0.14 0.00 91 1007.8
20260506175232 52 249 4.3 7.0 0.00 0.14 0.00 91 1007.7
20260506174735 52 249 5.2 7.8 0.00 0.14 0.00 92 1007.7
20260506174229 52 244 4.3 6.1 0.00 0.14 0.00 92 1007.7
20260506173728 52 241 3.5 6.1 0.00 0.14 0.00 93 1007.5
20260506173227 52 227 2.6 5.2 0.00 0.14 0.00 93 1007.4
20260506172730 52 236 3.5 5.2 0.00 0.14 0.00 93 1007.3
20260506172228 52 235 3.5 6.1 0.00 0.14 0.00 92 1007.3
20260506171723 53 233 3.5 6.1 0.00 0.14 0.00 91 1007.1
20260506171222 53 228 1.7 5.2 0.00 0.14 0.00 91 1007.0
20260506170721 53 242 1.7 3.5 0.00 0.14 0.00 90 1007.1
20260506170219 53 227 2.6 6.1 0.00 0.14 0.00 89 1007.1
20260506165726 53 233 3.5 6.1 0.00 0.14 0.00 89 1007.1
20260506165217 54 230 3.5 6.1 0.00 0.14 0.00 88 1007.1
20260506164715 55 233 3.5 6.1 0.00 0.14 0.00 86 1007.0
20260506164237 55 226 3.5 6.1 0.00 0.14 0.00 85 1007.1
20260506163732 55 241 3.5 6.1 0.00 0.14 0.00 83 1007.0
20260506163230 57 239 4.3 7.0 0.00 0.14 0.00 79 1006.9
20260506162729 58 226 2.6 7.8 0.00 0.14 0.00 73 1007.0
20260506162228 57 236 3.5 6.1 0.00 0.14 0.00 71 1007.1
20260506161726 58 232 3.5 6.1 0.00 0.14 0.00 72 1007.0
20260506161229 58 243 5.2 7.0 0.00 0.14 0.00 72 1007.1
20260506160726 57 236 3.5 7.0 0.00 0.14 0.00 73 1007.1
20260506160223 57 242 5.2 8.7 0.00 0.14 0.00 73 1007.1
20260506155722 57 254 4.3 6.1 0.00 0.14 0.00 74 1007.2
20260506155221 57 250 4.3 7.0 0.00 0.14 0.00 74 1007.2
20260506154720 57 258 5.2 7.0 0.00 0.14 0.00 74 1007.3
20260506154219 57 260 5.2 7.0 0.00 0.14 0.00 74 1007.3
20260506153721 58 257 4.3 7.0 0.00 0.14 0.00 74 1007.2
20260506153216 57 252 5.2 7.0 0.00 0.14 0.00 74 1007.2
20260506152735 57 254 6.1 7.0 0.00 0.14 0.00 73 1007.3
20260506152233 57 247 4.3 6.1 0.00 0.14 0.00 74 1007.2
20260506151732 57 252 4.3 6.1 0.00 0.14 0.00 73 1007.1
20260506151233 57 243 4.3 6.1 0.00 0.14 0.00 73 1007.1
20260506150732 57 243 3.5 6.1 0.00 0.14 0.00 73 1007.1
20260506150229 57 260 5.2 6.1 0.00 0.14 0.00 72 1007.0
20260506145728 57 246 4.3 6.1 0.00 0.14 0.00 72 1007.0
20260506145228 57 244 4.3 7.0 0.00 0.14 0.00 72 1007.0
20260506144727 57 249 3.5 5.2 0.00 0.14 0.00 72 1006.8
20260506144223 58 242 3.5 6.1 0.00 0.14 0.00 72 1006.8
20260506143722 58 252 3.5 5.2 0.00 0.14 0.00 72 1006.8
20260506143221 58 238 4.3 6.1 0.00 0.14 0.00 72 1006.8
20260506142720 58 249 3.5 6.1 0.00 0.14 0.00 71 1006.8
20260506142219 58 250 3.5 5.2 0.00 0.14 0.00 71 1006.8
20260506141720 58 246 3.5 5.2 0.00 0.14 0.00 71 1006.8
20260506141216 58 248 3.5 5.2 0.00 0.14 0.00 71 1006.8
20260506140735 58 240 2.6 3.5 0.00 0.14 0.00 70 1006.9
20260506140240 58 247 2.6 3.5 0.00 0.14 0.00 70 1006.9
20260506135734 58 247 4.3 7.0 0.00 0.14 0.00 70 1007.0
20260506135233 58 251 4.3 7.0 0.00 0.14 0.00 70 1007.0
20260506134730 57 248 2.6 5.2 0.00 0.14 0.00 69 1006.9
20260506134228 58 259 3.5 6.1 0.00 0.14 0.00 69 1006.9
20260506133726 58 251 4.3 7.0 0.00 0.14 0.00 71 1007.0
20260506133226 58 244 4.3 5.2 0.00 0.14 0.00 70 1006.9
20260506132724 58 239 5.2 7.0 0.00 0.14 0.00 70 1006.9
20260506132225 58 255 3.5 6.1 0.00 0.14 0.00 69 1006.8
20260506131723 58 249 3.5 6.1 0.00 0.14 0.00 70 1006.9
20260506131220 58 249 2.6 5.2 0.00 0.14 0.00 70 1006.9
20260506130719 59 241 4.3 6.1 0.00 0.14 0.00 70 1007.0
20260506130218 58 248 3.5 5.2 0.00 0.14 0.00 70 1006.9
20260506125721 59 254 4.3 6.1 0.00 0.14 0.00 70 1006.9
20260506125216 60 250 4.3 7.0 0.00 0.14 0.00 70 1006.9
20260506124740 60 253 5.2 7.8 0.00 0.14 0.00 69 1006.8
20260506124233 60 254 3.5 6.1 0.00 0.14 0.00 70 1006.7
20260506123732 58 258 3.5 6.1 0.00 0.14 0.00 72 1006.7
20260506123231 58 259 4.3 6.1 0.00 0.14 0.00 72 1006.8
20260506122734 58 253 4.3 6.1 0.00 0.14 0.00 73 1006.8
20260506122232 58 256 4.3 6.1 0.00 0.14 0.00 72 1006.9
20260506121728 58 232 5.2 9.6 0.00 0.14 0.00 70 1006.7
20260506121226 57 251 4.3 7.0 0.00 0.14 0.00 71 1006.8
20260506120727 57 259 5.2 9.6 0.00 0.14 0.00 72 1006.9
20260506120224 57 252 6.1 7.8 0.00 0.14 0.00 73 1006.9
20260506115723 57 249 6.1 8.7 0.00 0.14 0.00 75 1007.0
20260506115221 57 255 6.1 8.7 0.00 0.14 0.00 76 1006.9
20260506114721 57 261 6.1 7.8 0.00 0.14 0.00 77 1007.0
20260506114222 57 253 5.2 8.7 0.00 0.14 0.00 77 1007.0
20260506113717 56 239 5.2 7.8 0.00 0.14 0.00 78 1007.2
20260506113216 56 237 4.3 7.0 0.00 0.14 0.00 79 1007.3
20260506112734 56 254 6.1 7.8 0.00 0.14 0.00 79 1007.3
20260506112237 56 247 4.3 7.0 0.00 0.14 0.00 79 1007.3
20260506111732 56 229 1.7 3.5 0.00 0.14 0.00 77 1007.3
20260506111235 57 229 1.7 7.0 0.00 0.14 0.00 77 1007.3
20260506110730 57 232 4.3 7.0 0.00 0.14 0.00 76 1007.3
20260506110230 56 250 5.2 7.8 0.00 0.14 0.00 78 1007.3
20260506105727 56 245 5.2 7.8 0.00 0.14 0.00 78 1007.3
20260506105226 57 246 5.2 7.8 0.00 0.14 0.00 77 1007.3
20260506104725 57 245 5.2 8.7 0.00 0.14 0.00 74 1007.2
20260506104223 57 243 4.3 8.7 0.00 0.14 0.00 76 1007.3
20260506103728 57 250 5.2 7.8 0.00 0.14 0.00 77 1007.4
20260506103221 56 249 7.0 8.7 0.00 0.14 0.00 76 1007.3
20260506102720 55 256 6.1 7.8 0.00 0.14 0.00 78 1007.3
20260506102219 56 254 6.1 9.6 0.00 0.14 0.00 78 1007.3
20260506101717 56 253 6.1 8.7 0.00 0.14 0.00 78 1007.2
20260506101222 56 254 6.1 8.7 0.00 0.14 0.00 78 1007.3
20260506100735 56 252 5.2 7.0 0.00 0.14 0.00 78 1007.3
20260506100234 56 257 5.2 7.8 0.00 0.14 0.00 80 1007.3
20260506095733 57 243 5.2 7.8 0.00 0.14 0.00 79 1007.2
20260506095232 57 235 4.3 6.1 0.00 0.14 0.00 81 1007.3
20260506094736 56 249 3.5 7.8 0.00 0.14 0.00 81 1007.3
20260506094229 56 208 5.2 7.8 0.00 0.14 0.00 80 1007.2
20260506093728 56 244 4.3 7.0 0.00 0.14 0.00 83 1007.3
20260506093226 56 244 4.3 7.8 0.00 0.14 0.00 85 1007.3
20260506092726 55 230 3.5 7.0 0.00 0.14 0.00 84 1007.2
20260506092224 55 256 3.5 6.1 0.00 0.14 0.00 85 1007.3
20260506091726 55 239 4.3 6.1 0.00 0.14 0.00 84 1007.4
20260506091225 55 237 4.3 6.1 0.00 0.14 0.00 85 1007.3
20260506090720 55 259 5.2 7.0 0.00 0.14 0.00 85 1007.2
20260506090220 54 250 4.3 7.0 0.00 0.14 0.00 87 1007.3
20260506085717 54 262 6.1 7.8 0.00 0.14 0.00 86 1007.3
20260506085216 54 258 5.2 7.0 0.00 0.14 0.00 86 1007.2
20260506084735 54 248 5.2 7.8 0.00 0.14 0.00 86 1007.1
20260506084234 54 246 4.3 6.1 0.00 0.14 0.00 87 1007.2
20260506083734 54 248 4.3 6.1 0.00 0.14 0.00 88 1007.3
20260506083231 52 255 5.2 7.0 0.00 0.14 0.00 88 1007.1
20260506082732 53 254 5.2 7.0 0.00 0.14 0.00 89 1007.1
20260506082229 53 252 5.2 7.0 0.00 0.14 0.00 89 1006.9
20260506081728 53 254 5.2 7.0 0.00 0.14 0.00 89 1007.0
20260506081226 54 249 5.2 7.8 0.00 0.14 0.00 89 1006.9
20260506080725 54 251 4.3 7.0 0.00 0.14 0.00 91 1006.8
20260506080226 53 249 3.5 5.2 0.00 0.14 0.00 91 1006.8
20260506073217 53 243 2.6 5.2 0.00 0.14 0.00 92 1006.9
20260506072736 52 252 3.5 5.2 0.00 0.14 0.00 94 1006.9
20260506072234 52 241 3.5 5.2 0.00 0.14 0.00 94 1006.9
20260506071733 52 250 4.3 5.2 0.00 0.14 0.00 95 1006.9
20260506071232 52 247 4.3 7.0 0.00 0.14 0.00 95 1007.0
20260506070735 51 234 3.5 6.1 0.00 0.14 0.00 96 1007.0
20260506070230 52 239 3.5 6.1 0.00 0.14 0.00 95 1007.0
20260506062220 51 243 4.3 7.0 0.00 0.14 0.00 95 1006.9
20260506061718 51 248 5.2 7.0 0.00 0.14 0.00 95 1006.7
20260506061217 51 250 4.3 5.2 0.00 0.14 0.00 95 1006.8
20260506060718 51 252 4.3 5.2 0.00 0.14 0.00 96 1006.8
20260506060238 51 253 4.3 5.2 0.00 0.14 0.00 96 1007.0
20260506051222 50 249 4.3 6.1 0.00 0.14 0.00 98 1007.2
20260506050725 50 247 4.3 6.1 0.00 0.14 0.00 98 1007.2
20260506050219 50 247 4.3 7.0 0.00 0.14 0.00 97 1007.2
20260506044716 50 240 5.2 8.7 0.00 0.14 0.00 97 1007.0
20260506044235 50 249 5.2 7.0 0.00 0.14 0.00 98 1007.0
20260506043735 50 254 3.5 6.1 0.00 0.14 0.00 99 1007.0
20260506043239 50 245 3.5 3.5 0.00 0.14 0.00 99 1007.1
20260506042731 50 245 3.5 6.1 0.00 0.14 0.00 99 1007.1
20260506042229 50 247 3.5 5.2 0.00 0.14 0.00 99 1007.0
20260506041728 50 250 4.3 6.1 0.00 0.14 0.00 99 1006.9
20260506041231 50 248 3.5 5.2 0.00 0.14 0.00 99 1007.0
20260506040726 50 250 3.5 6.1 0.00 0.14 0.00 99 1007.0
20260506040224 50 243 3.5 3.5 0.00 0.14 0.00 99 1007.0
20260506035725 50 250 4.3 5.2 0.00 0.14 0.00 99 1007.0
20260506035226 50 248 4.3 6.1 0.00 0.14 0.00 99 1007.0
20260506034720 50 249 3.5 5.2 0.00 0.14 0.00 99 1007.1
20260506034219 50 243 4.3 6.1 0.00 0.14 0.00 99 1007.0
20260506033718 50 249 4.3 5.2 0.00 0.14 0.00 99 1007.1
20260506033216 50 246 4.3 7.0 0.00 0.14 0.00 99 1007.2
20260506032715 50 248 5.2 7.0 0.00 0.14 0.00 99 1007.3
20260506032234 50 245 4.3 6.1 0.00 0.14 0.00 99 1007.4
20260506031735 50 253 4.3 6.1 0.00 0.14 0.00 99 1007.3
20260506031232 51 243 3.5 5.2 0.00 0.14 0.00 99 1007.5
20260506030732 51 241 2.6 3.5 0.00 0.14 0.00 99 1007.4
20260506030229 51 243 3.5 5.2 0.00 0.14 0.00 99 1007.4
20260506025728 51 250 4.3 5.2 0.00 0.14 0.00 99 1007.6
20260506025226 51 247 4.3 5.2 0.00 0.14 0.00 99 1007.6
20260506024725 51 257 4.3 5.2 0.00 0.14 0.00 99 1007.5
20260506024226 51 249 5.2 7.8 0.00 0.14 0.00 99 1007.5
20260506023726 51 243 4.3 6.1 0.00 0.14 0.00 99 1007.6
20260506023221 51 249 5.2 7.0 0.00 0.14 0.00 99 1007.4
20260506022720 51 248 5.2 7.0 0.00 0.14 0.00 99 1007.5
20260506022219 51 252 4.3 6.1 0.00 0.14 0.00 99 1007.6
20260506021718 51 248 3.5 6.1 0.00 0.14 0.00 99 1007.5
20260506021217 51 248 3.5 5.2 0.00 0.14 0.00 99 1007.5
20260506020735 51 246 6.1 7.8 0.00 0.14 0.00 99 1007.5
20260506020242 51 245 5.2 7.8 0.00 0.14 0.00 99 1007.5
20260506015733 51 246 4.3 7.0 0.00 0.14 0.00 99 1007.5
20260506015231 51 244 3.5 5.2 0.00 0.14 0.00 99 1007.5
20260506014730 51 237 3.5 5.2 0.00 0.14 0.00 99 1007.6
20260506014228 51 236 2.6 3.5 0.00 0.14 0.00 99 1007.6
20260506013728 51 238 3.5 5.2 0.00 0.14 0.00 99 1007.8
20260506013232 51 241 2.6 3.5 0.00 0.14 0.00 99 1007.6
20260506012726 51 236 3.5 5.2 0.00 0.14 0.00 99 1007.7
20260506012224 51 239 4.3 6.1 0.00 0.14 0.00 99 1007.7
20260506011723 51 239 5.2 7.0 0.00 0.14 0.00 99 1007.8
20260506011221 51 240 3.5 5.2 0.00 0.14 0.00 99 1007.8
20260506010720 51 245 3.5 5.2 0.00 0.14 0.00 99 1007.9
20260506010223 51 244 4.3 5.2 0.00 0.14 0.00 99 1007.9
20260506005717 51 242 4.3 5.2 0.00 0.14 0.00 99 1007.9
20260506005216 51 246 4.3 6.1 0.00 0.14 0.00 99 1007.9
20260506004735 51 243 4.3 6.1 0.00 0.14 0.00 99 1007.9
20260506004234 51 240 6.1 9.6 0.00 0.14 0.00 99 1007.8
20260506003733 51 240 6.1 9.6 0.00 0.14 0.00 99 1007.9
20260506003231 52 244 5.2 7.8 0.00 0.14 0.00 99 1008.0
20260506002736 52 247 6.1 8.7 0.00 0.14 0.00 99 1008.0
20260506002229 52 244 6.1 11.3 0.00 0.14 0.00 99 1008.0
20260506001727 52 247 6.1 8.7 0.00 0.14 0.00 99 1008.1
20260506001226 52 243 5.2 7.0 0.00 0.14 0.00 99 1008.1
20260506000725 52 245 5.2 7.0 0.00 0.14 0.00 99 1008.1
20260506000228 52 249 6.1 7.8 0.00 0.14 0.00 99 1008.1
20260505235728 52 251 7.0 7.8 0.00 0.14 0.00 99 1008.2
20260505235221 52 246 6.1 8.7 0.00 0.14 0.00 99 1008.2
20260505234720 52 237 5.2 7.0 0.00 0.14 0.00 99 1008.3
20260505234225 52 245 6.1 7.8 0.00 0.14 0.00 99 1008.3
20260505233718 52 247 6.1 9.6 0.00 0.14 0.00 99 1008.3
20260505233217 52 241 6.1 7.8 0.00 0.14 0.00 99 1008.4
20260505232735 52 247 5.2 7.8 0.00 0.14 0.00 99 1008.2
20260505232234 52 249 5.2 7.0 0.00 0.14 0.00 99 1008.3
20260505231733 52 248 4.3 7.0 0.00 0.14 0.00 99 1008.4
20260505231238 52 244 4.3 6.1 0.00 0.14 0.00 99 1008.4
20260505230730 52 244 4.3 6.1 0.00 0.14 0.00 99 1008.5
20260505230229 52 241 4.3 6.1 0.00 0.14 0.00 99 1008.3
20260505225728 52 247 3.5 5.2 0.00 0.14 0.00 99 1008.4
20260505225227 52 241 3.5 5.2 0.00 0.14 0.00 99 1008.4
20260505224727 52 234 3.5 5.2 0.00 0.14 0.00 99 1008.4
20260505224224 51 234 2.6 3.5 0.01 0.14 0.00 99 1008.4
20260505223727 51 231 2.6 3.5 0.01 0.14 0.00 99 1008.4
20260505223222 51 230 2.6 3.5 0.01 0.14 0.00 99 1008.4
20260505222720 51 236 2.6 3.5 0.01 0.14 0.00 99 1008.4
20260505222219 51 234 2.6 3.5 0.02 0.14 0.00 99 1008.5
20260505221718 51 232 2.6 2.6 0.02 0.14 0.00 99 1008.3
20260505221217 51 234 2.6 5.2 0.03 0.14 0.00 99 1008.4
20260505220724 51 241 3.5 5.2 0.04 0.14 0.00 99 1008.4
20260505220235 52 239 2.6 3.5 0.05 0.14 0.14 99 1008.4
20260505215736 52 232 2.6 5.2 0.06 0.14 0.14 99 1008.4
20260505215232 52 231 3.5 3.5 0.07 0.14 0.14 99 1008.4
20260505214731 52 238 2.6 3.5 0.07 0.14 0.14 99 1008.5